Bienvenue, Invité
Merci de vous identifier ou de vous inscrire.    Mot de passe perdu?
Liste des utilisateurs Fragento : Communauté Francophone de Magento - Plugins, Templates, Configuration c'est 41620 utilisateurs enregistrés
Statut Avatar Nom Le + récent en 1er Le + récent en dernier Pseudonyme Le + récent en 1er Le + récent en dernier Messages Le + récent en 1er Le + récent en dernier Karma Le + récent en 1er Le + récent en dernier Date d'arrivée Le + récent en 1er Le + récent en dernier Dernière visite Le + récent en 1er Le + récent en dernier Vues Le + récent en 1er Le + récent en dernier
271 Personne n'est hors ligne Benomar zouhir java2dev 1 0 28.07.2016 29.07.2016 1
272 Personne n'est hors ligne ywywuj ywywuj 0 0 26.07.2016 26.07.2016 6
273 Personne n'est hors ligne Abderrahmane Maghlaoui abderrahmane@218labs.ma 0 0 22.07.2016 22.07.2016 0
274 Personne n'est hors ligne uvofid uvofid 0 0 20.07.2016 20.07.2016 4
275 Personne n'est hors ligne Bern vcr_bern 4 0 15.07.2016 12.10.2016 0
276 Personne n'est hors ligne Herchel RASELIARISON 4 0 13.07.2016 26.12.2016 2
277 Personne n'est hors ligne Fred Malaterre fred64 3 0 05.07.2016 06.07.2016 1
278 Personne n'est hors ligne Pompejusz45 Pompejusz45 0 0 04.07.2016 04.07.2016 4
279 Personne n'est hors ligne ivldt38 ivldt38 0 0 01.07.2016 04.07.2016 0
280 Personne n'est hors ligne Elise Lilmuna 0 0 01.07.2016 01.07.2016 0
281 Personne n'est hors ligne Fred Gaveau fgaveau@gmail.com 1 0 30.06.2016 20.07.2016 2
282 Personne n'est hors ligne Pakoslaw45 Pakoslaw45 0 0 30.06.2016 30.06.2016 4
283 Personne n'est hors ligne gustinelli gilles.gustinelli@colibri 0 0 30.06.2016 11.07.2016 0
284 Personne n'est hors ligne Mark Wilson wilson@techselection.com 1 0 28.06.2016 28.06.2016 0
285 Personne n'est hors ligne Dewingaerde passy2005 0 0 22.06.2016 22.06.2016 0
286 Personne n'est hors ligne somucom somucom 1 0 14.06.2016 15.06.2016 0
287 Personne n'est hors ligne Kinzi Kinzi 3 0 13.06.2016 01.07.2016 10
288 Personne n'est hors ligne Gallois PGEN 1 0 09.06.2016 09.06.2016 0
289 Personne n'est hors ligne STEPHANE CASTEL smadox 0 0 07.06.2016 07.06.2016 0
290 Personne n'est hors ligne Sam HUY 0 0 05.06.2016 05.06.2016 0
291 Personne n'est hors ligne Frederic Eynaud frederic.eynaud 0 0 31.05.2016 31.05.2016 0
292 Personne n'est hors ligne ewutymu ewutymu 0 0 28.05.2016 28.05.2016 0
293 Personne n'est hors ligne combe JC 1 0 27.05.2016 27.05.2016 1
294 Personne n'est hors ligne Vincent vinsoux 6 0 23.05.2016 03.06.2016 2
295 Personne n'est hors ligne manu_katz KATZ 0 0 22.05.2016 06.06.2016 0
296 Personne n'est hors ligne CM CMSEO 3 0 19.05.2016 05.07.2016 0
297 Personne n'est hors ligne ywubitusa ywubitusa 0 0 16.05.2016 16.05.2016 0
298 Personne n'est hors ligne David riviere Driviere 0 0 15.05.2016 23.07.2016 0
299 Personne n'est hors ligne Anthony Moreau anmoreau4 0 0 13.05.2016 13.05.2016 0
300 Personne n'est hors ligne gorchane mohamed golden studio 1 0 11.05.2016 11.05.2016 2
<< Début < Préc 1 2 3 4 5 6 7 8 9 10 Suivant > Fin >>
Page 10 de 265 | Affichage
  [ Membre]   [ Modérateur]